M I D A S
Marine Information and Data Acquisition System
Tripno 1184 of the Zeeleeuw from 2006-11-28 08:03:03 to 2006-11-28 14:25:56
Back to CruiseResearch ActivitiesStationsMapUnderway DataData graphs

EquipmentUnitsComments
TimeDGPSUTC
LatitudeDGPSDM.mWGS84
LongitudeDGPSDM.mWGS84
SpeedMeteo Stationm/sRelative wind speed
DirectionMeteo StationdegRelative wind direction
TemperatureMeteo Stationdeg CelciusAir temperature
PressureMeteo StationPaAtmospheric pressure
HumidityMeteo Station%Relative humidity
Missing or incorrect values are displayed as -999
Metereological data collected by the RV Zeeleeuw from 2006-11-28 07:55:09 to 2006-11-28 08:31:48
Time Latitude Longitude Speed Direction Temperature Pressure Humidity
2006-11-28 07:55:18 51°13.599 2°56.093 3.3 347 9.6 101270 95
2006-11-28 07:55:23 51°13.599 2°56.092 3.6 351 9.6 101270 95
2006-11-28 07:55:28 51°13.6 2°56.09 3.3 353 9.6 101270 95
2006-11-28 07:55:34 51°13.601 2°56.087 3.5 8 9.6 101270 95
2006-11-28 07:55:38 51°13.601 2°56.085 2.9 353 9.6 101270 95
2006-11-28 07:55:44 51°13.602 2°56.081 3.9 349 9.6 101270 95
2006-11-28 07:55:49 51°13.604 2°56.077 3.4 3 9.6 101270 95
2006-11-28 07:55:54 51°13.605 2°56.073 4.5 352 9.6 101270 95
2006-11-28 07:55:59 51°13.606 2°56.068 3.6 346 9.6 101270 95
2006-11-28 07:56:04 51°13.608 2°56.063 5.1 4 9.6 101270 95
2006-11-28 07:56:09 51°13.61 2°56.057 4.5 341 9.6 101270 95
2006-11-28 07:56:14 51°13.611 2°56.051 2.6 355 9.6 101270 95
2006-11-28 07:56:19 51°13.613 2°56.045 2.4 346 9.6 101270 95
2006-11-28 07:56:24 51°13.615 2°56.039 3.8 349 9.6 101270 95
2006-11-28 07:56:29 51°13.616 2°56.032 3.3 354 9.6 101280 95
2006-11-28 07:56:34 51°13.618 2°56.025 3.9 355 9.6 101280 95
2006-11-28 07:56:39 51°13.62 2°56.019 3.1 2 9.6 101270 95
2006-11-28 07:56:44 51°13.622 2°56.012 3.5 4 9.6 101270 95
2006-11-28 07:56:49 51°13.624 2°56.004 2.6 360 9.6 101280 95
2006-11-28 07:56:54 51°13.626 2°55.997 1.7 6 9.6 101280 95
2006-11-28 07:56:59 51°13.627 2°55.99 1.7 16 9.6 101280 95
2006-11-28 07:57:04 51°13.63 2°55.983 3.4 19 9.6 101280 95
2006-11-28 07:57:09 51°13.632 2°55.975 2.7 8 9.6 101280 95
2006-11-28 07:57:14 51°13.634 2°55.968 3.4 4 9.6 101280 95
2006-11-28 07:57:19 51°13.636 2°55.96 3.6 6 9.6 101280 95
2006-11-28 07:57:24 51°13.639 2°55.953 3 6 9.6 101280 95
2006-11-28 07:57:29 51°13.641 2°55.946 3.2 12 9.6 101280 95
2006-11-28 07:57:34 51°13.644 2°55.938 4.2 353 9.6 101280 95
2006-11-28 07:57:39 51°13.647 2°55.93 4.1 357 9.6 101280 95
2006-11-28 07:57:44 51°13.65 2°55.923 4.5 328 9.6 101280 95
2006-11-28 07:57:49 51°13.653 2°55.915 3 349 9.6 101280 95
2006-11-28 07:57:54 51°13.656 2°55.907 4.5 353 9.6 101280 95
2006-11-28 07:57:59 51°13.659 2°55.899 4.4 352 9.6 101280 95
2006-11-28 07:58:04 51°13.662 2°55.891 3.7 354 9.6 101280 95
2006-11-28 07:58:09 51°13.665 2°55.884 4.1 358 9.6 101280 95
2006-11-28 07:58:14 51°13.668 2°55.875 2.6 12 9.6 101280 95
2006-11-28 07:58:19 51°13.671 2°55.867 3.4 2 9.6 101280 95
2006-11-28 07:58:24 51°13.674 2°55.86 3.2 351 9.6 101280 95
2006-11-28 07:58:29 51°13.677 2°55.851 3.1 356 9.6 101270 95
2006-11-28 07:58:34 51°13.681 2°55.843 3.6 354 9.6 101270 95
2006-11-28 07:58:39 51°13.684 2°55.834 3.9 349 9.6 101270 95
2006-11-28 07:58:44 51°13.688 2°55.826 3.7 351 9.6 101270 95
2006-11-28 07:58:49 51°13.691 2°55.817 3.8 354 9.7 101270 95
2006-11-28 07:58:54 51°13.694 2°55.809 3 358 9.7 101270 95
2006-11-28 07:58:59 51°13.697 2°55.8 2.5 359 9.6 101270 95
2006-11-28 07:59:04 51°13.7 2°55.792 2 360 9.6 101270 95
2006-11-28 07:59:09 51°13.702 2°55.784 3.1 4 9.7 101270 95
2006-11-28 07:59:14 51°13.705 2°55.776 3.9 17 9.7 101270 95
2006-11-28 07:59:19 51°13.707 2°55.767 3.6 24 9.7 101270 95
2006-11-28 07:59:24 51°13.709 2°55.76 3.3 12 9.7 101270 95
2006-11-28 07:59:29 51°13.711 2°55.752 3.5 13 9.7 101270 95
2006-11-28 07:59:34 51°13.712 2°55.745 3.2 14 9.7 101270 95
2006-11-28 07:59:39 51°13.714 2°55.737 3.3 14 9.7 101270 95
2006-11-28 07:59:44 51°13.715 2°55.73 3.2 16 9.7 101270 95
2006-11-28 07:59:48 51°13.716 2°55.725 2.9 18 9.7 101270 95
2006-11-28 07:59:54 51°13.717 2°55.718 3.2 18 9.7 101270 95
2006-11-28 07:59:58 51°13.718 2°55.714 3 9 9.7 101270 95
2006-11-28 08:00:03 51°13.719 2°55.711 2.7 14 9.7 101270 95
2006-11-28 08:00:08 51°13.72 2°55.709 2.8 10 9.7 101270 95
2006-11-28 08:00:13 51°13.72 2°55.709 3.1 12 9.7 101270 95
2006-11-28 08:00:18 51°13.721 2°55.711 3 10 9.7 101270 95
2006-11-28 08:00:23 51°13.723 2°55.714 3.4 11 9.7 101270 95
2006-11-28 08:00:28 51°13.725 2°55.717 3.8 22 9.7 101270 95
2006-11-28 08:00:33 51°13.728 2°55.721 3.7 16 9.7 101270 95
2006-11-28 08:00:38 51°13.731 2°55.725 3 12 9.7 101270 95
2006-11-28 08:00:43 51°13.733 2°55.727 3.8 20 9.7 101270 95
2006-11-28 08:00:48 51°13.736 2°55.729 3.9 26 9.7 101270 95
2006-11-28 08:00:54 51°13.737 2°55.731 4.3 33 9.7 101270 95
2006-11-28 08:00:59 51°13.738 2°55.731 4.5 29 9.7 101270 95
2006-11-28 08:01:03 51°13.738 2°55.732 4.2 29 9.7 101270 95
2006-11-28 08:01:08 51°13.738 2°55.731 5.1 32 9.7 101270 95
2006-11-28 08:01:13 51°13.737 2°55.73 5.7 39 9.7 101270 95
2006-11-28 08:01:18 51°13.736 2°55.729 4.6 45 9.7 101270 95
2006-11-28 08:01:24 51°13.734 2°55.727 5 43 9.7 101270 95
2006-11-28 08:01:29 51°13.731 2°55.724 4.8 39 9.7 101270 95
2006-11-28 08:01:34 51°13.729 2°55.722 4.8 40 9.7 101270 95
2006-11-28 08:01:39 51°13.727 2°55.72 5.1 40 9.7 101270 95
2006-11-28 08:01:44 51°13.725 2°55.718 4.8 38 9.7 101270 95
2006-11-28 08:01:49 51°13.723 2°55.716 4.4 40 9.7 101280 95
2006-11-28 08:01:54 51°13.722 2°55.715 3.4 39 9.7 101280 95
2006-11-28 08:01:59 51°13.721 2°55.713 3.9 18 9.7 101280 95
2006-11-28 08:02:04 51°13.721 2°55.713 3.8 36 9.7 101280 95
2006-11-28 08:02:09 51°13.721 2°55.712 3.4 24 9.7 101280 95
2006-11-28 08:02:14 51°13.722 2°55.712 3.3 33 9.7 101280 95
2006-11-28 08:02:18 51°13.723 2°55.711 3 28 9.7 101280 95
2006-11-28 08:02:24 51°13.725 2°55.711 3.5 33 9.7 101280 95
2006-11-28 08:02:29 51°13.727 2°55.71 3.8 26 9.7 101280 95
2006-11-28 08:02:34 51°13.729 2°55.709 3.3 38 9.7 101280 95
2006-11-28 08:02:39 51°13.732 2°55.708 3.2 26 9.7 101280 95
2006-11-28 08:02:44 51°13.734 2°55.707 2.9 37 9.7 101280 95
2006-11-28 08:02:48 51°13.736 2°55.706 2.4 21 9.7 101280 95
2006-11-28 08:02:53 51°13.739 2°55.704 1.8 35 9.7 101280 95
2006-11-28 08:02:58 51°13.743 2°55.702 1.7 19 9.7 101280 95
2006-11-28 08:03:03 51°13.746 2°55.699 2.1 36 9.7 101280 95
2006-11-28 08:03:08 51°13.751 2°55.696 2.5 19 9.7 101280 95
2006-11-28 08:03:13 51°13.755 2°55.693 1.7 58 9.7 101280 95
2006-11-28 08:03:18 51°13.76 2°55.69 1 25 9.7 101280 95
2006-11-28 08:03:23 51°13.765 2°55.687 1.6 38 9.7 101280 95
2006-11-28 08:03:28 51°13.771 2°55.683 1.9 25 9.7 101280 95
2006-11-28 08:03:33 51°13.776 2°55.679 0.9 55 9.7 101280 95
2006-11-28 08:03:38 51°13.782 2°55.675 1.2 26 9.7 101280 95
2006-11-28 08:03:43 51°13.788 2°55.671 1.3 38 9.7 101280 95
2006-11-28 08:03:48 51°13.795 2°55.666 1.4 26 9.7 101280 95
2006-11-28 08:03:53 51°13.802 2°55.661 2.1 36 9.7 101280 95
2006-11-28 08:03:58 51°13.81 2°55.656 2.4 26 9.7 101280 95
2006-11-28 08:04:03 51°13.818 2°55.65 1.3 32 9.7 101280 95
2006-11-28 08:04:08 51°13.827 2°55.644 1.2 27 9.8 101280 95
2006-11-28 08:04:13 51°13.836 2°55.638 1.3 34 9.8 101280 95
2006-11-28 08:04:18 51°13.846 2°55.632 1 26 9.8 101280 95
2006-11-28 08:04:23 51°13.856 2°55.624 1 30 9.8 101280 95
2006-11-28 08:04:28 51°13.865 2°55.618 1.1 18 9.8 101280 95
2006-11-28 08:04:33 51°13.874 2°55.611 1.1 30 9.8 101280 95
2006-11-28 08:04:38 51°13.884 2°55.605 1.2 26 9.8 101280 95
2006-11-28 08:04:44 51°13.894 2°55.598 1.8 56 9.8 101280 95
2006-11-28 08:04:48 51°13.901 2°55.593 1.6 24 9.8 101280 95
2006-11-28 08:04:53 51°13.91 2°55.587 1.5 38 9.8 101280 95
2006-11-28 08:04:58 51°13.918 2°55.581 1.4 25 9.8 101280 95
2006-11-28 08:05:03 51°13.926 2°55.575 1.2 33 9.8 101280 95
2006-11-28 08:05:08 51°13.934 2°55.57 1.4 27 9.8 101280 95
2006-11-28 08:05:13 51°13.942 2°55.564 1.2 36 9.8 101280 95
2006-11-28 08:05:18 51°13.95 2°55.559 1.4 27 9.9 101280 95
2006-11-28 08:05:23 51°13.958 2°55.554 1.7 39 9.9 101280 95
2006-11-28 08:05:28 51°13.965 2°55.549 2 42 9.9 101280 95
2006-11-28 08:05:34 51°13.974 2°55.543 1.3 37 9.9 101280 95
2006-11-28 08:05:38 51°13.98 2°55.539 1.6 25 9.9 101280 95
2006-11-28 08:05:43 51°13.988 2°55.534 2.1 35 9.9 101280 95
2006-11-28 08:05:48 51°13.995 2°55.529 1.8 27 9.9 101280 95
2006-11-28 08:05:53 51°14.003 2°55.524 1.7 30 9.9 101280 95
2006-11-28 08:05:58 51°14.01 2°55.519 1.7 26 9.9 101280 95
2006-11-28 08:06:03 51°14.017 2°55.514 1.4 36 9.9 101280 95
2006-11-28 08:06:08 51°14.024 2°55.509 1.1 23 9.9 101280 95
2006-11-28 08:06:13 51°14.031 2°55.504 2.5 31 9.9 101280 95
2006-11-28 08:06:19 51°14.039 2°55.499 2.1 21 9.9 101280 95
2006-11-28 08:06:24 51°14.046 2°55.493 1.7 40 9.9 101280 95
2006-11-28 08:06:28 51°14.052 2°55.489 1.5 27 9.9 101280 95
2006-11-28 08:06:33 51°14.058 2°55.484 1.3 34 9.9 101280 95
2006-11-28 08:06:38 51°14.065 2°55.479 1 23 9.9 101280 95
2006-11-28 08:06:43 51°14.072 2°55.474 1.9 33 9.9 101280 95
2006-11-28 08:06:48 51°14.08 2°55.469 2 21 9.9 101280 95
2006-11-28 08:06:53 51°14.087 2°55.464 1.3 37 9.9 101280 95
2006-11-28 08:06:58 51°14.094 2°55.458 1.2 20 9.9 101280 95
2006-11-28 08:07:04 51°14.104 2°55.452 1.8 59 9.9 101280 95
2006-11-28 08:07:08 51°14.11 2°55.447 1.4 21 9.9 101280 95
2006-11-28 08:07:14 51°14.12 2°55.44 1.7 37 9.9 101280 95
2006-11-28 08:07:18 51°14.127 2°55.435 1.6 19 9.9 101280 95
2006-11-28 08:07:23 51°14.136 2°55.429 0.9 35 9.9 101280 95
2006-11-28 08:07:28 51°14.146 2°55.422 1 18 9.9 101280 95
2006-11-28 08:07:33 51°14.156 2°55.415 1.7 37 9.9 101280 95
2006-11-28 08:07:38 51°14.165 2°55.407 2.3 19 9.9 101280 95
2006-11-28 08:07:43 51°14.176 2°55.399 1.7 38 9.9 101280 95
2006-11-28 08:07:48 51°14.186 2°55.39 1.8 25 9.9 101280 95
2006-11-28 08:07:54 51°14.199 2°55.378 1.6 35 9.9 101280 95
2006-11-28 08:07:58 51°14.207 2°55.37 1.9 23 10 101280 95
2006-11-28 08:08:04 51°14.219 2°55.357 1.9 35 10 101280 95
2006-11-28 08:08:08 51°14.228 2°55.348 1.4 23 9.9 101280 95
2006-11-28 08:08:14 51°14.24 2°55.334 1.5 54 9.9 101280 95
2006-11-28 08:08:18 51°14.248 2°55.323 1.4 259 10 101280 95
2006-11-28 08:08:23 51°14.258 2°55.311 1.5 258 10 101280 95
2006-11-28 08:08:28 51°14.267 2°55.297 1.4 258 9.9 101280 95
2006-11-28 08:08:33 51°14.277 2°55.283 2 249 9.9 101280 95
2006-11-28 08:08:39 51°14.287 2°55.266 1.7 253 9.9 101280 95
2006-11-28 08:08:43 51°14.294 2°55.255 2.3 259 9.9 101280 95
2006-11-28 08:08:48 51°14.302 2°55.24 1.9 261 10 101270 95
2006-11-28 08:08:53 51°14.31 2°55.225 2.7 269 10 101270 95
2006-11-28 08:08:58 51°14.319 2°55.209 2.5 24 10 101280 95
2006-11-28 08:09:04 51°14.329 2°55.19 4.5 254 10 101280 95
2006-11-28 08:09:08 51°14.336 2°55.176 3.9 21 9.9 101280 95
2006-11-28 08:09:14 51°14.347 2°55.156 3.4 55 9.9 101280 95
2006-11-28 08:09:18 51°14.353 2°55.141 3.3 263 10 101280 95
2006-11-28 08:09:23 51°14.362 2°55.123 1.6 255 10 101280 95
2006-11-28 08:09:28 51°14.371 2°55.104 1.8 246 10 101280 95
2006-11-28 08:09:34 51°14.382 2°55.081 3.3 249 10 101280 95
2006-11-28 08:09:38 51°14.39 2°55.066 3.2 26 10 101270 95
2006-11-28 08:09:43 51°14.399 2°55.046 5.3 254 10 101270 95
2006-11-28 08:09:48 51°14.407 2°55.025 4.9 264 10 101270 95
2006-11-28 08:09:54 51°14.418 2°54.998 5.7 251 10 101270 95
2006-11-28 08:09:58 51°14.424 2°54.98 4.7 24 10 101270 95
2006-11-28 08:10:03 51°14.431 2°54.957 4.6 243 10 101270 95
2006-11-28 08:10:08 51°14.438 2°54.933 5.2 250 10 101270 95
2006-11-28 08:10:13 51°14.445 2°54.909 4.7 304 10 101270 95
2006-11-28 08:10:18 51°14.45 2°54.884 5 23 10 101270 95
2006-11-28 08:10:24 51°14.455 2°54.853 5.7 36 10 101270 95
2006-11-28 08:10:28 51°14.459 2°54.833 5.4 26 10 101270 95
2006-11-28 08:10:33 51°14.463 2°54.807 8.7 241 10 101270 95
2006-11-28 08:10:38 51°14.466 2°54.781 8.3 26 10 101270 95
2006-11-28 08:10:43 51°14.469 2°54.754 7.7 239 10 101270 95
2006-11-28 08:10:48 51°14.472 2°54.728 8.1 20 10 101260 95
2006-11-28 08:10:53 51°14.475 2°54.701 7.9 240 10 101260 95
2006-11-28 08:10:58 51°14.477 2°54.674 8.6 25 10 101260 95
2006-11-28 08:11:04 51°14.478 2°54.64 8 31 10 101260 95
2006-11-28 08:11:08 51°14.479 2°54.618 8 24 10 101260 95
2006-11-28 08:11:13 51°14.479 2°54.591 9.2 34 10 101260 95
2006-11-28 08:11:18 51°14.478 2°54.563 10.6 21 10 101250 95
2006-11-28 08:11:23 51°14.476 2°54.535 11.2 238 10 101250 95
2006-11-28 08:11:28 51°14.474 2°54.507 11.1 26 10.1 101260 95
2006-11-28 08:11:33 51°14.47 2°54.48 9.9 33 10.1 101260 95
2006-11-28 08:11:38 51°14.465 2°54.453 9.6 26 10.1 101260 95
2006-11-28 08:11:43 51°14.46 2°54.426 11.1 37 10.1 101260 95
2006-11-28 08:11:48 51°14.453 2°54.399 10.7 27 10.1 101250 95
2006-11-28 08:11:53 51°14.446 2°54.373 10.2 33 10.1 101250 95
2006-11-28 08:11:58 51°14.439 2°54.347 10.6 20 10.1 101260 95
2006-11-28 08:12:03 51°14.431 2°54.321 11.1 35 10.1 101260 95
2006-11-28 08:12:08 51°14.422 2°54.296 11.4 20 10.1 101240 95
2006-11-28 08:12:14 51°14.412 2°54.267 10.8 36 10.1 101240 95
2006-11-28 08:12:18 51°14.404 2°54.247 11.2 25 10.1 101240 95
2006-11-28 08:12:24 51°14.393 2°54.218 11.1 35 10.1 101240 95
2006-11-28 08:12:28 51°14.385 2°54.198 11.4 26 10.1 101240 95
2006-11-28 08:12:33 51°14.376 2°54.174 12.2 33 10.1 101240 95
2006-11-28 08:12:38 51°14.367 2°54.15 11.6 23 10.1 101230 95
2006-11-28 08:12:44 51°14.355 2°54.12 11.9 38 10.1 101230 95
2006-11-28 08:12:48 51°14.348 2°54.1 12.3 25 10.1 101240 95
2006-11-28 08:12:53 51°14.338 2°54.076 11.3 301 10.1 101240 95
2006-11-28 08:12:58 51°14.329 2°54.051 13.2 23 10.1 101230 95
2006-11-28 08:13:03 51°14.319 2°54.026 12.2 33 10.1 101230 95
2006-11-28 08:13:08 51°14.31 2°54.002 12 26 10.1 101230 95
2006-11-28 08:13:13 51°14.3 2°53.977 10.5 37 10.1 101230 95
2006-11-28 08:13:18 51°14.291 2°53.952 11.1 27 10.2 101230 95
2006-11-28 08:13:24 51°14.28 2°53.922 12.1 234 10.2 101230 95
2006-11-28 08:13:28 51°14.272 2°53.902 11.1 26 10.2 101240 95
2006-11-28 08:13:33 51°14.262 2°53.877 12.7 39 10.2 101240 95
2006-11-28 08:13:38 51°14.253 2°53.852 13.1 25 10.2 101220 95
2006-11-28 08:13:43 51°14.244 2°53.827 12.3 38 10.2 101220 95
2006-11-28 08:13:48 51°14.234 2°53.802 12.2 26 10.2 101230 95
2006-11-28 08:13:53 51°14.224 2°53.777 12.5 37 10.2 101230 95
2006-11-28 08:13:59 51°14.213 2°53.748 11.3 23 10.2 101230 95
2006-11-28 08:14:03 51°14.206 2°53.727 11.7 34 10.2 101230 95
2006-11-28 08:14:08 51°14.196 2°53.702 11.5 25 10.2 101230 95
2006-11-28 08:14:13 51°14.187 2°53.677 12.1 34 10.2 101230 95
2006-11-28 08:14:18 51°14.177 2°53.652 10.3 22 10.2 101230 95
2006-11-28 08:14:23 51°14.168 2°53.627 11.5 38 10.2 101230 95
2006-11-28 08:14:28 51°14.158 2°53.602 12.7 27 10.2 101230 95
2006-11-28 08:14:33 51°14.149 2°53.577 10.8 30 10.2 101230 95
2006-11-28 08:14:38 51°14.14 2°53.552 10.9 23 10.2 101230 95
2006-11-28 08:14:43 51°14.13 2°53.526 11.3 235 10.2 101230 95
2006-11-28 08:14:48 51°14.121 2°53.501 10.1 23 10.2 101230 95
2006-11-28 08:14:52 51°14.113 2°53.481 13 315 10.2 101230 95
2006-11-28 08:14:58 51°14.102 2°53.451 12.7 26 10.2 101220 95
2006-11-28 08:15:04 51°14.091 2°53.421 13.8 35 10.2 101220 95
2006-11-28 08:15:08 51°14.083 2°53.401 13.9 23 10.2 101220 95
2006-11-28 08:15:14 51°14.072 2°53.37 13.6 305 10.2 101220 95
2006-11-28 08:15:18 51°14.065 2°53.35 12 27 10.2 101220 95
2006-11-28 08:15:23 51°14.055 2°53.325 14.9 32 10.2 101220 95
2006-11-28 08:15:28 51°14.046 2°53.3 13.4 21 10.3 101220 95
2006-11-28 08:15:32 51°14.039 2°53.28 11.9 233 10.3 101220 95
2006-11-28 08:15:38 51°14.027 2°53.25 11.6 24 10.2 101220 95
2006-11-28 08:15:44 51°14.016 2°53.22 11.2 33 10.2 101220 95
2006-11-28 08:15:48 51°14.008 2°53.2 11.3 21 10.3 101220 95
2006-11-28 08:15:53 51°13.998 2°53.175 12.2 37 10.3 101220 95
2006-11-28 08:15:58 51°13.989 2°53.15 11.7 26 10.3 101210 95
2006-11-28 08:16:03 51°13.98 2°53.124 13.3 238 10.3 101210 95
2006-11-28 08:16:08 51°13.971 2°53.099 13.3 26 10.3 101220 95
2006-11-28 08:16:13 51°13.962 2°53.074 10.8 35 10.3 101220 95
2006-11-28 08:16:18 51°13.952 2°53.048 13.2 23 10.3 101230 94
2006-11-28 08:16:23 51°13.943 2°53.023 12.1 38 10.3 101230 94
2006-11-28 08:16:28 51°13.933 2°52.998 12.1 25 10.3 101230 94
2006-11-28 08:16:33 51°13.924 2°52.973 11.7 38 10.3 101230 94
2006-11-28 08:16:38 51°13.914 2°52.948 11.6 24 10.3 101220 94
2006-11-28 08:16:43 51°13.905 2°52.923 13.4 34 10.3 101220 94
2006-11-28 08:16:48 51°13.896 2°52.897 13.1 25 10.3 101220 94
2006-11-28 08:16:54 51°13.884 2°52.867 14.8 38 10.3 101220 94
2006-11-28 08:16:59 51°13.875 2°52.842 13.3 23 10.3 101230 94
2006-11-28 08:17:03 51°13.868 2°52.821 12.6 235 10.3 101230 94
2006-11-28 08:17:08 51°13.858 2°52.796 12.8 24 10.3 101220 94
2006-11-28 08:17:12 51°13.851 2°52.776 12.8 31 10.3 101220 94
2006-11-28 08:17:18 51°13.839 2°52.746 12.2 19 10.3 101210 94
2006-11-28 08:17:23 51°13.83 2°52.721 12.9 32 10.3 101210 94
2006-11-28 08:17:28 51°13.821 2°52.695 12.3 25 10.3 101220 94
2006-11-28 08:17:33 51°13.812 2°52.67 12.7 36 10.3 101220 94
2006-11-28 08:17:38 51°13.802 2°52.645 12.1 23 10.4 101220 94
2006-11-28 08:17:43 51°13.793 2°52.62 13.8 36 10.4 101220 94
2006-11-28 08:17:48 51°13.784 2°52.595 13.9 25 10.4 101220 94
2006-11-28 08:17:53 51°13.774 2°52.569 11.8 35 10.4 101220 94
2006-11-28 08:17:58 51°13.765 2°52.544 12.8 24 10.4 101220 94
2006-11-28 08:18:04 51°13.754 2°52.514 12.2 38 10.4 101220 94
2006-11-28 08:18:08 51°13.747 2°52.494 12 24 10.4 101220 94
2006-11-28 08:18:13 51°13.737 2°52.468 11.5 33 10.4 101220 94
2006-11-28 08:18:18 51°13.728 2°52.443 12.9 21 10.4 101220 94
2006-11-28 08:18:23 51°13.719 2°52.418 13.4 33 10.4 101220 94
2006-11-28 08:18:28 51°13.71 2°52.392 13.3 20 10.4 101220 94
2006-11-28 08:18:33 51°13.701 2°52.367 12.6 37 10.4 101220 94
2006-11-28 08:18:38 51°13.691 2°52.342 12.9 22 10.4 101220 94
2006-11-28 08:18:43 51°13.682 2°52.317 13 34 10.4 101220 94
2006-11-28 08:18:48 51°13.672 2°52.292 12.9 21 10.4 101210 94
2006-11-28 08:18:54 51°13.661 2°52.262 12.7 35 10.4 101210 94
2006-11-28 08:18:58 51°13.654 2°52.242 13.9 22 10.4 101210 94
2006-11-28 08:19:03 51°13.645 2°52.217 12.1 32 10.4 101210 94
2006-11-28 08:19:08 51°13.635 2°52.191 12.8 24 10.4 101210 94
2006-11-28 08:19:14 51°13.624 2°52.16 11.3 234 10.4 101210 94
2006-11-28 08:19:18 51°13.617 2°52.14 12.5 23 10.4 101220 94
2006-11-28 08:19:23 51°13.607 2°52.115 11.5 233 10.4 101220 94
2006-11-28 08:19:28 51°13.598 2°52.089 12.7 23 10.4 101210 94
2006-11-28 08:19:33 51°13.589 2°52.064 11.7 308 10.4 101210 94
2006-11-28 08:19:38 51°13.58 2°52.039 12.1 21 10.5 101210 94
2006-11-28 08:19:43 51°13.57 2°52.013 12.8 34 10.5 101210 94
2006-11-28 08:19:48 51°13.561 2°51.988 13.1 21 10.5 101210 94
2006-11-28 08:19:53 51°13.552 2°51.962 13.9 33 10.5 101210 94
2006-11-28 08:19:58 51°13.543 2°51.937 13.5 20 10.5 101220 94
2006-11-28 08:20:03 51°13.534 2°51.912 12.5 232 10.5 101220 94
2006-11-28 08:20:08 51°13.524 2°51.886 13.2 27 10.5 101210 94
2006-11-28 08:20:13 51°13.515 2°51.861 13.7 33 10.5 101210 94
2006-11-28 08:20:18 51°13.506 2°51.836 12.7 21 10.5 101200 94
2006-11-28 08:20:24 51°13.495 2°51.805 12.1 310 10.5 101200 94
2006-11-28 08:20:28 51°13.487 2°51.785 11.8 21 10.5 101210 94
2006-11-28 08:20:33 51°13.478 2°51.76 12.5 35 10.5 101210 94
2006-11-28 08:20:38 51°13.469 2°51.734 12.8 20 10.5 101210 94
2006-11-28 08:20:43 51°13.46 2°51.709 13.1 32 10.5 101210 94
2006-11-28 08:20:48 51°13.451 2°51.683 12.5 20 10.5 101210 94
2006-11-28 08:20:53 51°13.441 2°51.658 13 33 10.5 101210 94
2006-11-28 08:20:58 51°13.432 2°51.632 13.8 24 10.6 101210 94
2006-11-28 08:21:03 51°13.423 2°51.607 12.4 37 10.6 101210 94
2006-11-28 08:21:08 51°13.413 2°51.581 13.8 24 10.6 101210 94
2006-11-28 08:21:13 51°13.404 2°51.556 11.6 38 10.6 101210 94
2006-11-28 08:21:19 51°13.393 2°51.525 11.4 24 10.6 101210 93
2006-11-28 08:21:24 51°13.384 2°51.5 12.1 36 10.6 101210 93
2006-11-28 08:21:28 51°13.376 2°51.48 11.3 27 10.6 101200 93
2006-11-28 08:21:33 51°13.367 2°51.454 14.4 33 10.6 101200 93
2006-11-28 08:21:38 51°13.358 2°51.429 13.1 25 10.6 101190 93
2006-11-28 08:21:43 51°13.349 2°51.403 12.7 34 10.6 101190 93
2006-11-28 08:21:48 51°13.34 2°51.378 14 21 10.6 101210 93
2006-11-28 08:21:53 51°13.331 2°51.352 12.5 31 10.6 101210 93
2006-11-28 08:21:58 51°13.321 2°51.327 13.1 20 10.6 101210 93
2006-11-28 08:22:03 51°13.312 2°51.301 13.5 35 10.6 101210 93
2006-11-28 08:22:08 51°13.303 2°51.276 13 24 10.7 101200 93
2006-11-28 08:22:13 51°13.294 2°51.25 12.2 35 10.7 101200 93
2006-11-28 08:22:18 51°13.285 2°51.225 11.8 26 10.7 101210 93
2006-11-28 08:22:24 51°13.274 2°51.194 11.9 36 10.7 101210 93
2006-11-28 08:22:28 51°13.267 2°51.174 13 24 10.7 101210 93
2006-11-28 08:22:33 51°13.258 2°51.148 11.9 31 10.7 101210 93
2006-11-28 08:22:38 51°13.248 2°51.123 11.8 19 10.7 101210 93
2006-11-28 08:22:44 51°13.237 2°51.092 12.5 35 10.7 101210 93
2006-11-28 08:22:48 51°13.23 2°51.072 12.4 21 10.7 101210 93
2006-11-28 08:22:53 51°13.221 2°51.046 13.6 40 10.7 101210 93
2006-11-28 08:22:58 51°13.211 2°51.021 13.2 25 10.7 101200 93
2006-11-28 08:23:03 51°13.202 2°50.995 10.9 33 10.7 101200 93
2006-11-28 08:23:08 51°13.193 2°50.97 12.3 20 10.7 101210 93
2006-11-28 08:23:13 51°13.184 2°50.945 11 35 10.7 101210 93
2006-11-28 08:23:18 51°13.174 2°50.919 12.7 21 10.7 101210 93
2006-11-28 08:23:23 51°13.165 2°50.893 12.1 39 10.7 101210 93
2006-11-28 08:23:28 51°13.156 2°50.868 11.5 22 10.7 101220 93
2006-11-28 08:23:33 51°13.147 2°50.842 12.5 234 10.7 101220 93
2006-11-28 08:23:38 51°13.138 2°50.816 12.7 27 10.8 101210 93
2006-11-28 08:23:43 51°13.129 2°50.791 13.8 31 10.8 101210 93
2006-11-28 08:23:48 51°13.12 2°50.765 13.2 24 10.8 101210 93
2006-11-28 08:23:53 51°13.11 2°50.74 11.8 37 10.8 101210 93
2006-11-28 08:23:58 51°13.101 2°50.714 12 26 10.8 101220 93
2006-11-28 08:24:03 51°13.092 2°50.689 12.5 34 10.8 101220 93
2006-11-28 08:24:08 51°13.083 2°50.663 12.4 23 10.8 101200 93
2006-11-28 08:24:13 51°13.074 2°50.638 12.6 38 10.8 101200 93
2006-11-28 08:24:18 51°13.065 2°50.612 12.2 27 10.8 101210 93
2006-11-28 08:24:23 51°13.056 2°50.587 12.2 39 10.8 101210 93
2006-11-28 08:24:28 51°13.047 2°50.561 12.1 29 10.8 101210 93
2006-11-28 08:24:33 51°13.037 2°50.535 12.3 32 10.8 101210 93
2006-11-28 08:24:38 51°13.028 2°50.51 12 24 10.8 101210 93
2006-11-28 08:24:44 51°13.017 2°50.479 12.9 33 10.8 101210 93
2006-11-28 08:24:48 51°13.01 2°50.459 12.1 22 10.8 101220 92
2006-11-28 08:24:53 51°13.001 2°50.433 11.8 231 10.8 101220 92
2006-11-28 08:24:58 51°12.992 2°50.407 11.9 26 10.9 101220 92
2006-11-28 08:25:03 51°12.983 2°50.382 13.7 35 10.9 101220 92
2006-11-28 08:25:08 51°12.973 2°50.356 12.4 24 10.9 101210 92
2006-11-28 08:25:13 51°12.964 2°50.33 13 39 10.9 101210 92
2006-11-28 08:25:18 51°12.955 2°50.304 13.1 27 10.9 101210 92
2006-11-28 08:25:24 51°12.944 2°50.274 12.3 33 10.9 101210 92
2006-11-28 08:25:28 51°12.936 2°50.253 13.1 25 10.9 101210 92
2006-11-28 08:25:33 51°12.927 2°50.228 12.3 35 10.9 101210 92
2006-11-28 08:25:38 51°12.918 2°50.202 12.7 25 10.9 101210 92
2006-11-28 08:25:44 51°12.907 2°50.171 12.2 33 10.9 101210 92
2006-11-28 08:25:48 51°12.9 2°50.15 12.5 25 10.9 101220 92
2006-11-28 08:25:54 51°12.889 2°50.12 13.7 36 10.9 101220 92
2006-11-28 08:25:58 51°12.881 2°50.099 13.7 24 10.9 101210 92
2006-11-28 08:26:03 51°12.872 2°50.073 14 34 10.9 101210 92
2006-11-28 08:26:08 51°12.863 2°50.048 12.7 23 10.9 101210 92
2006-11-28 08:26:13 51°12.854 2°50.022 11.7 36 10.9 101210 92
2006-11-28 08:26:18 51°12.844 2°49.996 13.1 21 10.9 101220 92
2006-11-28 08:26:24 51°12.833 2°49.966 12.3 35 10.9 101220 92
2006-11-28 08:26:28 51°12.826 2°49.945 12 24 11 101210 92
2006-11-28 08:26:33 51°12.817 2°49.919 12.9 37 11 101210 92
2006-11-28 08:26:38 51°12.808 2°49.894 12.6 24 11 101210 92
2006-11-28 08:26:43 51°12.799 2°49.868 13.6 32 11 101210 92
2006-11-28 08:26:48 51°12.79 2°49.842 13.5 22 11 101210 92
2006-11-28 08:26:52 51°12.783 2°49.821 15.3 36 11 101210 92
2006-11-28 08:26:58 51°12.772 2°49.791 13.4 22 11 101210 92
2006-11-28 08:27:03 51°12.763 2°49.765 14.2 35 11 101210 92
2006-11-28 08:27:08 51°12.753 2°49.739 13.4 23 11 101210 92
2006-11-28 08:27:13 51°12.744 2°49.714 13.7 32 11 101210 92
2006-11-28 08:27:18 51°12.735 2°49.688 14.6 24 11 101200 92
2006-11-28 08:27:24 51°12.724 2°49.658 14.4 37 11 101200 92
2006-11-28 08:27:28 51°12.717 2°49.637 13.8 25 11 101200 92
2006-11-28 08:27:33 51°12.708 2°49.612 13.2 35 11 101200 92
2006-11-28 08:27:38 51°12.699 2°49.586 13.4 24 11 101210 92
2006-11-28 08:27:43 51°12.69 2°49.561 12.9 36 11 101210 92
2006-11-28 08:27:48 51°12.681 2°49.535 12.8 26 11 101200 91
2006-11-28 08:27:53 51°12.672 2°49.509 13.7 33 11 101200 91
2006-11-28 08:27:58 51°12.663 2°49.484 14.9 20 11 101210 91
2006-11-28 08:28:04 51°12.651 2°49.453 15.1 305 11 101210 91
2006-11-28 08:28:08 51°12.644 2°49.432 14.7 25 11.1 101210 91
2006-11-28 08:28:13 51°12.635 2°49.407 13.9 35 11.1 101210 91
2006-11-28 08:28:18 51°12.626 2°49.381 13.5 20 11.1 101210 91
2006-11-28 08:28:23 51°12.617 2°49.355 12.6 37 11.1 101210 91
2006-11-28 08:28:28 51°12.608 2°49.33 11.7 23 11.1 101210 91
2006-11-28 08:28:34 51°12.597 2°49.299 12.7 34 11.1 101210 91
2006-11-28 08:28:39 51°12.588 2°49.273 14.5 21 11.1 101210 91
2006-11-28 08:28:43 51°12.581 2°49.253 14.2 33 11.1 101210 91
2006-11-28 08:28:48 51°12.572 2°49.227 12.5 23 11.1 101210 91
2006-11-28 08:28:53 51°12.563 2°49.202 15.1 35 11.1 101210 91
2006-11-28 08:28:58 51°12.554 2°49.176 14.2 25 11.1 101220 91
2006-11-28 08:29:04 51°12.543 2°49.145 13.4 33 11.1 101220 91
2006-11-28 08:29:08 51°12.535 2°49.124 13.8 24 11.1 101220 91
2006-11-28 08:29:14 51°12.525 2°49.093 14 35 11.1 101220 91
2006-11-28 08:29:18 51°12.517 2°49.073 15.5 25 11.1 101210 91
2006-11-28 08:29:23 51°12.508 2°49.047 13.2 38 11.1 101210 91
2006-11-28 08:29:28 51°12.498 2°49.021 13.1 22 11.1 101210 91
2006-11-28 08:29:33 51°12.489 2°48.995 13.2 38 11.1 101210 91
2006-11-28 08:29:38 51°12.48 2°48.97 13.2 23 11.1 101210 91
2006-11-28 08:29:43 51°12.471 2°48.944 15.2 33 11.1 101210 91
2006-11-28 08:29:48 51°12.462 2°48.918 14 25 11.1 101200 90
2006-11-28 08:29:53 51°12.453 2°48.893 13 34 11.1 101200 90
2006-11-28 08:29:58 51°12.443 2°48.867 13.1 24 11.1 101210 90
2006-11-28 08:30:03 51°12.434 2°48.841 11.9 31 11.1 101210 90
2006-11-28 08:30:08 51°12.425 2°48.816 12.7 21 11.1 101220 90
2006-11-28 08:30:12 51°12.418 2°48.795 15.3 34 11.1 101220 90
2006-11-28 08:30:18 51°12.407 2°48.764 14.1 20 11.1 101210 90
2006-11-28 08:30:23 51°12.398 2°48.738 14.5 35 11.1 101210 90
2006-11-28 08:30:28 51°12.389 2°48.713 12.8 27 11.2 101210 90
2006-11-28 08:30:34 51°12.378 2°48.682 13.4 30 11.2 101210 90
2006-11-28 08:30:38 51°12.37 2°48.662 13.2 21 11.2 101200 90
2006-11-28 08:30:43 51°12.361 2°48.636 13.1 35 11.2 101200 90
2006-11-28 08:30:48 51°12.352 2°48.61 13.3 21 11.2 101210 90
2006-11-28 08:30:53 51°12.343 2°48.585 13.3 34 11.2 101210 90
2006-11-28 08:30:58 51°12.334 2°48.56 12.5 20 11.2 101200 90
2006-11-28 08:31:03 51°12.325 2°48.534 13.9 35 11.2 101200 90
2006-11-28 08:31:08 51°12.316 2°48.508 13.9 26 11.2 101200 90
2006-11-28 08:31:13 51°12.307 2°48.483 11.5 34 11.2 101200 90
2006-11-28 08:31:19 51°12.296 2°48.452 11.2 25 11.2 101210 90
2006-11-28 08:31:23 51°12.288 2°48.432 13.5 34 11.2 101210 90
2006-11-28 08:31:28 51°12.279 2°48.406 13.7 25 11.2 101200 89
2006-11-28 08:31:33 51°12.27 2°48.38 14.5 33 11.2 101200 89
2006-11-28 08:31:38 51°12.261 2°48.355 13.5 24 11.2 101200 89
2006-11-28 08:31:43 51°12.252 2°48.329 13.6 37 11.2 101200 89